Regional Weather Roundup
Issued by NWS Mobile, AL

Home | Current Version | Previous Version | Text Only | Print | Product List | Glossary On
Versions: 1 2 3 4 5 6 7 8 9 10 11 12 13 14 15 16 17 18 19 20 21 22 23 24 25 26 27 28 29 30 31 32 33 34 35 36 37 38 39 40 41 42 43 44 45 46 47 48 49 50
000
ASUS44 KMOB 230610
RWRMOB
REGIONAL WEATHER ROUNDUP
NATIONAL WEATHER SERVICE MOBILE AL
100 AM CDT TUE SEP 23 2014

NOTE: "FAIR" INDICATES FEW OR NO CLOUDS BELOW 12,000 FEET WITH NO
      SIGNIFICANT WEATHER AND/OR OBSTRUCTIONS TO VISIBILITY.

  * THESE STATIONS ARE PART OF THE UNIVERSITY OF SOUTH ALABAMA
    MESONET AND ARE NOT UNDER NWS OR FAA QUALITY CONTROL.

ALZ061>064-230700-
COASTAL ALABAMA

CITY           SKY/WX    TMP DP  RH WIND       PRES   REMARKS
MOBILE REG APT CLEAR     65  55  70 N9        30.07R
6HR MIN TEMP:  64; 6HR MAX TEMP:  76;

BROOKLEY FIELD CLEAR     67  58  72 N8        30.07R
6HR MIN TEMP:  66; 6HR MAX TEMP:  81;

USA CAMPUS*      N/A     61  55  82 CALM      30.07S
DOG RIVER*     NOT AVBL


CITY           SKY/WX    TMP DP  RH WIND       PRES   REMARKS
MOUNT VERNON*    N/A     55  54  94 CALM      30.08R
SARALAND*      NOT AVBL
BAY MINETTE*   NOT AVBL
LOXLEY*          N/A     63  55  77 NE6       30.06S
ROBERTSDALE*     N/A    N/A N/A N/A N3        30.05S
FAIRHOPE*        N/A     63  59  88 NE3       30.05
ELBERTA*         N/A     66  52  59 CALM      30.04S
FOLEY*         NOT AVBL
GRAND BAY*       N/A     61  55  82 CALM      30.04R
DAUPHIN ISLND* NOT AVBL
BON SCOUR NWR* NOT AVBL
GULF SHORES    CLEAR     65  63  91 NE3       30.04S

$$

ALZ051>060-230700-
INTERIOR SOUTHWEST AND SOUTH CENTRAL ALABAMA

CITY           SKY/WX    TMP DP  RH WIND       PRES   REMARKS
GREENVILLE     CLEAR     61  53  75 NE5       30.08S
6HR MIN TEMP:  61; 6HR MAX TEMP:  74;

EVERGREEN      CLEAR     61  55  81 CALM      30.08R
6HR MIN TEMP:  59; 6HR MAX TEMP:  72;

CASTLEBERRY*   NOT AVBL
ATMORE*          N/A     61  55  82 VRB6      30.08R
DIXIE*         NOT AVBL
ANDALUSIA/OPP  CLEAR     68  55  63 NE5       30.06S
6HR MIN TEMP:  67; 6HR MAX TEMP:  72;

ANDALUSIA*     NOT AVBL
FLORALA APT    CLEAR     64  60  87 N8        30.06S
6HR MIN TEMP:  63; 6HR MAX TEMP:  71;

FLORALA*       NOT AVBL

$$

FLZ001>006-230700-
WESTERN FLORIDA PANHANDLE

CITY           SKY/WX    TMP DP  RH WIND       PRES   REMARKS
PENSACOLA      CLEAR     67  64  90 N5        30.04S
6HR MIN TEMP:  67; 6HR MAX TEMP:  77;

NAS PENSACOLA  CLEAR     67  64  90 N6        30.03S
6HR MIN TEMP:  67; 6HR MAX TEMP:  80;

MILTON         CLEAR     64  56  75 N5        30.05R
6HR MIN TEMP:  63; 6HR MAX TEMP:  74;

WHTNG S FIELD  CLEAR     67  58  72 N7        30.05R
6HR MIN TEMP:  66; 6HR MAX TEMP:  77;



CITY           SKY/WX    TMP DP  RH WIND       PRES   REMARKS
WALNUT HILL*   NOT AVBL
JAY*           NOT AVBL
DUKE FIELD     CLEAR     64  64 100 N5        30.04R
CRESTVIEW      CLEAR     64  63  96 CALM      30.05S FOG
6HR MIN TEMP:  63; 6HR MAX TEMP:  72;

VALPARAISO     CLEAR     66  64  94 N5        30.03S
6HR MIN TEMP:  66; 6HR MAX TEMP:  75;

DESTIN         CLEAR     72  66  81 N6        30.03R
6HR MIN TEMP:  72; 6HR MAX TEMP:  76;


$$

MSZ076-079-230700-
INTERIOR SOUTHEAST MISSISSIPPI

CITY           SKY/WX    TMP DP  RH WIND       PRES   REMARKS
LEAKESVILLE*     N/A     66  50  55 NE8       30.08S
AGRICOLA*      NOT AVBL

$$

MARINE OBSERVATIONS

STATION/POSITION TIME  TEMP    WIND        PRES    WAVE
                       AIR SEA DIR/SP/G            HT/PER
                 (UTC) (F)     (DEG/KT/KT) (MB)    (FT/S)
PASCAGOULA       0600   71      10/  9/ 12 1017.1S
PETIT BOIS ISLND 0600   77      40/ 16/ 20 1017.2R
GRAND BAY        0500   70      20/  5     1018.0S
KATRINA CUT      0500   76      30/ 12     1017.6S
CEDAR POINT      0500   77      40/ 12     1016.9F
E DAUPHIN ISLAND 0500   78      50/ 14/ 16 1017.1S
MIDDLE BAY LIGHT 0500   76      50/ 15     1016.9F
USCG MOBILE BAY  0600      85              1016.7R
STATE DOCKS      0600   70 86              1017.5R
MEAHER PARK      0500   69     360/  3     1018.0S
WEEKS BAY        0500   66                   N/A
FORT MORGAN      0600   76      70/ 15/ 17 1016.5S
12 S ORANGE BCH  0600   79 85   50/ 19/ 23 1016.6S   3/ 4
PENSACOLA BAY    0600   72 84   10/  4/  5 1017.4R
64 S DAUPHIN ISL 0513   81 83   60/ 21/ 25 1016.3R   4/ 5
67 S FORT MORGAN 0500   81                 1015.6R

$$

SELECTED LOCATIONS ACROSS THE REGION

CITY           SKY/WX    TMP DP  RH WIND       PRES   REMARKS
NEW ORLEANS    CLEAR     76  56  49 NE15G29   30.04S
GULFPORT       CLEAR     68  53  58 N9        30.05S
PASCAGOULA AP  CLEAR     60  56  86 N3        30.05S
PASCAGOULA*    NOT AVBL
HATTIESBURG    CLEAR     66  54  65 N3        30.11R
LAUREL         CLEAR    N/A N/A N/A N8        30.11R
MERIDIAN       CLEAR     59  53  80 N7        30.12S
JACKSON        CLEAR     67  53  61 NE10      30.13S
MONTGOMERY     CLEAR     63  54  72 N6        30.09S
TROY           CLEAR     56  54  93 E3        30.08S
KINSTON*       NOT AVBL
GENEVA*        NOT AVBL
ASHFORD*       NOT AVBL
DOTHAN         CLEAR     62  61  96 N5        30.08S
PANAMA CITY    MOCLDY    68  65  90 N5        30.02R

$$



USA.gov is the U.S. government's official web portal to all federal, state and local government web resources and services.